Regional Weather Roundup
Issued by NWS

Home | Current Version | Previous Version | Graphics & Text | Print | Product List | Glossary On
Versions: 1 2 3 4 5 6 7 8 9 10 11 12 13 14 15 16 17 18 19 20 21 22 23 24 25 26 27 28 29 30 31 32 33 34 35 36 37 38 39 40 41 42 43 44 45 46 47 48 49 50
000
ASUS43 KMKX 300600
RWRWI

WISCONSIN REGIONAL WEATHER ROUNDUP
NATIONAL WEATHER SERVICE MILWAUKEE/SULLIVAN WI
100 AM CDT SAT APR 30 2016

NOTE: "FAIR" INDICATES FEW OR NO CLOUDS BELOW 12,000 FEET WITH NO
SIGNIFICANT WEATHER AND/OR OBSTRUCTIONS TO VISIBILITY.

WIZ001-002-006>008-014>016-023>028-300700-
NORTHWEST WISCONSIN

CITY           SKY/WX    TMP DP  RH WIND       PRES   REMARKS
SUPERIOR ARPT  CLEAR     37  32  83 E6        30.22R WCI  32
ASHLAND        CLEAR     32  31  96 E3        30.23R
6HR MIN TEMP:  31; 6HR MAX TEMP:  47;

HAYWARD        CLEAR     35  27  72 NE7       30.18R WCI  29
6HR MIN TEMP:  35; 6HR MAX TEMP:  52;

SIREN          CLEAR     42  29  60 NE6       30.18S
CUMBERLAND     CLEAR     39  30  70 NE3       30.16R
RICE LAKE      CLEAR     42  31  64 N3        30.17R
CHETEK         PTCLDY    45  31  58 NE5       30.16R
LADYSMITH      CLEAR     42  31  64 NE6       30.16S
EAU CLAIRE     NOT AVBL
MENOMONIE      CLOUDY    48  36  62 N8        30.13S
NEW RICHMOND   CLOUDY    45  32  61 NE7       30.14S
OSCEOLA        CLEAR     45  32  59 NE6       30.18R
$$

WIZ003>005-009-010-017-018-300700-
NORTH CENTRAL WISCONSIN

CITY           SKY/WX    TMP DP  RH WIND       PRES   REMARKS
MANITOWISH WTR CLEAR     38  30  72 NE3       30.18R
ARBOR VITAE    CLEAR     42  30  63 NE3       30.17R
WOODRUFF       CLEAR     42  30  63 NE3       30.17R
RHINELANDER    CLEAR     39  29  67 NE5       30.17R
6HR MIN TEMP:  38; 6HR MAX TEMP:  55;

EAGLE RIVER    CLEAR     35  27  72 CALM      30.17R
LAND O LAKES   CLEAR     36  28  74 CALM      30.18R
PHILLIPS       CLEAR     38  30  72 NE5       30.15R WCI  34
TOMAHAWK       CLEAR     36  33  90 CALM      30.16R
MEDFORD        CLEAR     37  35  90 CALM      30.14R
MERRILL        CLEAR     33  32  98 N3        30.16R
$$

WIZ029-030-035-036-043>047-300700-
CENTRAL WISCONSIN

CITY           SKY/WX    TMP DP  RH WIND       PRES   REMARKS
WAUSAU         CLEAR     41  34  76 E3        30.13S
6HR MIN TEMP:  39; 6HR MAX TEMP:  57;

MOSINEE        CLEAR     41  32  70 E5        30.15R
MARSHFIELD     CLOUDY    42  34  73 E6        30.12S
6HR MIN TEMP:  42; 6HR MAX TEMP:  55;

STEVENS POINT  CLEAR     34  32  91 NE3       30.14S
WAUPACA        CLEAR     43  34  70 E3        30.15S
WAUTOMA        MOCLDY    36  33  89 CALM      30.14F
6HR MIN TEMP:  35; 6HR MAX TEMP:  55;

WISC RAPIDS    CLOUDY    43  32  65 NE6       30.13F
6HR MIN TEMP:  42; 6HR MAX TEMP:  55;

CAMP DOUGLAS   NOT AVBL
$$

WIZ011>013-019>022-031-037>040-048>050-300700-
NORTHEAST WISCONSIN

CITY           SKY/WX    TMP DP  RH WIND       PRES   REMARKS
ANTIGO         CLEAR     35  31  85 NE5       30.16R WCI  31
SHAWANO        CLEAR     42  34  74 CALM      30.16R
OCONTO         MOCLDY    37  35  92 CALM      30.16S
STURGEON BAY   CLEAR     39  27  60 N6        30.18S WCI  35
6HR MIN TEMP:  39; 6HR MAX TEMP:  50;

GREEN BAY      CLEAR     38  34  85 SW6       30.15S WCI  33
6HR MIN TEMP:  38; 6HR MAX TEMP:  53;

MANITOWOC      NOT AVBL
APPLETON       CLEAR     43  28  56 E5        30.13F
CLINTONVILLE   CLEAR     39  32  75 CALM      30.16R
OSHKOSH        CLOUDY    43  31  62 E3        30.13F
6HR MIN TEMP:  38; 6HR MAX TEMP:  53;

$$

WIZ032>034-041-042-053>061-300700-
SOUTHWEST WISCONSIN

CITY           SKY/WX    TMP DP  RH WIND       PRES   REMARKS
LA CROSSE      PTCLDY    43  38  82 E3        30.11R
6HR MIN TEMP:  42; 6HR MAX TEMP:  53;

SPARTA         CLOUDY    36  35  99 CALM      30.12S
VIROQUA        PTCLDY    42  37  83 E6        30.10R
BOSCOBEL       CLOUDY    38  36  92 CALM      30.11R
6HR MIN TEMP:  38; 6HR MAX TEMP:  53;

PRAIRIE DU CHI CLOUDY    41  38  88 CALM      30.09F
PLATTEVILLE    CLOUDY    41  39  92 E6        30.10R
$$

WIZ056-057-062-063-064-067-068-300700-
SOUTH CENTRAL WISCONSIN

CITY           SKY/WX    TMP DP  RH WIND       PRES   REMARKS
REEDSBURG      CLOUDY    41  36  80 E3        30.11S
BARABOO/DELLS  CLOUDY    42  34  74 E8        30.11S
LONE ROCK      NOT AVBL
MINERAL POINT  CLOUDY    43  39  87 E7        30.09R
MADISON        CLOUDY    42  36  79 E6        30.11R
6HR MIN TEMP:  39; 6HR MAX TEMP:  51;

MIDDLETON      CLOUDY    44  37  77 E8        30.11R
WATERTOWN      CLOUDY    41  34  76 E5        30.12F
MONROE         CLOUDY    39  37  93 E7        30.09R WCI  34
JANESVILLE     CLOUDY    43  41  93 E8        30.10R
$$

WIZ051-052-058>065-066-070>072-300700-
SOUTHEAST WISCONSIN

CITY           SKY/WX    TMP DP  RH WIND       PRES   REMARKS
MILWAUKEE      CLOUDY    43  32  65 NE3       30.13F
6HR MIN TEMP:  39; 6HR MAX TEMP:  43;

WAUKESHA       CLOUDY    39  32  75 E5        30.13F
MILWAUKEE/TIMM CLOUDY    41  30  65 CALM      30.13F
RACINE         CLOUDY    44  30  57 E8        30.14S
6HR MIN TEMP:  40; 6HR MAX TEMP:  45;

BURLINGTON     CLOUDY    41  35  79 E5        30.12S
KENOSHA        CLOUDY    43  35  73 E7        30.12S
6HR MIN TEMP:  41; 6HR MAX TEMP:  46;

FOND DU LAC    PTCLDY    38  29  70 E3        30.13F
6HR MIN TEMP:  38; 6HR MAX TEMP:  53;

SHEBOYGAN      CLEAR     34  29  82 N3        30.13F
6HR MIN TEMP:  34; 6HR MAX TEMP:  47;

WEST BEND      CLOUDY    34  30  86 CALM      30.12F
JUNEAU         CLOUDY    38  31  77 NE5       30.12F WCI  35
$$

LSZ147-162-300700-
LAKE SUPERIOR

STATION/POSITION TIME  TEMP    WIND        PRES    WAVE
                       AIR SEA DIR/SP/G            HT/PER
                 (UTC) (F)     (DEG/KT/KT) (MB)    (FT/S)
W MID LAKE BUOY  0450   39 36   30/ 10/ 10 1025.0R   1
DEVILS ISLAND    0500   39      60/  6/  6 1024.5F
SAXON HARBOR     0500   31     200/  2/  3 1022.7F
$$

LMZ867-665-643>646-300700-
LAKE MICHIGAN

STATION/POSITION TIME  TEMP    WIND        PRES    WAVE
                       AIR SEA DIR/SP/G            HT/PER
                 (UTC) (F)     (DEG/KT/KT) (MB)    (FT/S)
CHAMBERS ISLAND  0500   44      20/  9/ 11 1021.7R
N MID LAKE BUOY  0450   41 38   80/ 10/ 12 1021.6S   0
NORTHPORT PIER   0500   42     330/  1/  3 1021.3S
ALGOMA LAKESHORE 0400             CALM       N/A
KEWAUNEE LAKESHO 0500   38     310/  4/  5 1020.2F
SHEBOYGAN LAKESH 0500   43     350/  5/  6 1021.8F
PORT WASHINGTON  0500   41     340/  3/  5 1021.7S
S MID LAKE BUOY  0450   41 40   60/  8/ 10 1020.6F   1/ 3
KENOSHA   LAKESH 0500   42      40/  9/ 10 1020.0F
$$

TC  - TEMPERATURE IN CELSIUS
VSB - VISIBILITY IN STATUTE MILES
WCI - WIND CHILL INDEX
HX  - HEAT INDEX





USA.gov is the U.S. government's official web portal to all federal, state and local government web resources and services.